GW0939 Weather Reports


Display with metric or nautical units.
time (UTC)temp
F
wind
direction
speed
MPH
gust
MPH
rain 1hr
in
rain 24hr
in
rain mn
in
humidity
%
barometer
mb
20260510141708 61 275 1.0 3.0 0.00 0.24 0.01 93 1012.0
20260510141205 61 307 1.0 3.0 0.00 0.24 0.01 94 1012.1
20260510140707 60 214 1.0 3.0 0.00 0.24 0.01 94 1012.1
20260510140205 60 282 1.0 3.0 0.00 0.24 0.01 94 1011.7
20260510135705 60 74 1.0 3.0 0.00 0.24 0.01 94 1011.9
20260510135204 59 16 1.0 3.0 0.00 0.24 0.01 94 1012.1
20260510134706 59 328 1.0 2.0 0.00 0.24 0.01 94 1012.1
20260510134205 59 323 1.0 2.0 0.00 0.24 0.01 94 1012.1
20260510133705 58 290 0.0 2.0 0.00 0.24 0.01 94 1012.1
20260510133204 58 327 0.0 2.0 0.00 0.24 0.01 94 1012.3
20260510132204 58 124 0.0 2.0 0.00 0.24 0.01 94 1012.4
20260510131707 57 223 0.0 2.0 0.00 0.24 0.01 94 1012.4
20260510131204 56 223 0.0 3.0 0.00 0.24 0.01 94 1012.4
20260510130203 55 294 0.0 2.0 0.00 0.24 0.01 94 1012.1
20260510125706 55 278 0.0 1.0 0.00 0.24 0.01 94 1012.1
20260510125205 54 278 0.0 1.0 0.00 0.24 0.01 94 1012.1
20260510124705 53 278 0.0 1.0 0.00 0.24 0.01 94 1012.4
20260510124206 52 278 0.0 1.0 0.00 0.24 0.01 94 1012.2
20260510123706 52 278 0.0 1.0 0.00 0.24 0.01 93 1012.2
20260510122706 51 281 0.0 1.0 0.00 0.24 0.01 93 1012.0
20260510122204 51 281 0.0 0.0 0.00 0.24 0.01 93 1012.1
20260510121706 51 281 0.0 0.0 0.00 0.24 0.01 93 1011.7
20260510121203 50 281 0.0 0.0 0.00 0.24 0.01 93 1011.7
20260510120706 50 281 0.0 1.0 0.00 0.24 0.01 93 1011.6
20260510120207 50 281 0.0 1.0 0.00 0.24 0.01 93 1011.6
20260510115705 50 281 0.0 1.0 0.00 0.24 0.01 93 1011.5
20260510115206 50 274 0.0 0.0 0.00 0.24 0.01 93 1011.4
20260510114703 50 274 0.0 0.0 0.00 0.24 0.01 93 1011.4
20260510114204 50 244 0.0 0.0 0.00 0.25 0.01 93 1011.4
20260510113706 50 52 0.0 0.0 0.00 0.25 0.01 93 1011.5
20260510113206 50 52 0.0 0.0 0.00 0.25 0.01 93 1011.5
20260510112705 50 52 0.0 0.0 0.00 0.25 0.01 93 1011.3
20260510112204 50 52 0.0 0.0 0.00 0.25 0.01 93 1011.4
20260510111705 49 52 0.0 0.0 0.00 0.25 0.01 93 1011.3
20260510111206 49 57 0.0 0.0 0.00 0.25 0.01 93 1011.1
20260510110706 49 57 0.0 0.0 0.00 0.25 0.01 93 1011.0
20260510110204 49 57 0.0 0.0 0.00 0.25 0.01 92 1011.0
20260510105706 49 57 0.0 0.0 0.00 0.25 0.01 93 1010.9
20260510105206 49 57 0.0 0.0 0.00 0.25 0.01 93 1011.0
20260510104704 49 57 0.0 0.0 0.00 0.25 0.01 92 1011.1
20260510104204 49 57 0.0 0.0 0.00 0.25 0.01 93 1011.0
20260510103205 49 57 0.0 0.0 0.00 0.25 0.01 93 1010.8
20260510102705 49 57 0.0 0.0 0.00 0.25 0.01 92 1010.9
20260510102204 49 57 0.0 0.0 0.00 0.25 0.01 92 1010.8
20260510101706 49 57 0.0 0.0 0.00 0.25 0.01 92 1010.9
20260510101205 49 57 0.0 0.0 0.00 0.25 0.01 92 1010.8
20260510100704 49 57 0.0 0.0 0.00 0.25 0.01 92 1010.7
20260510100203 49 57 0.0 0.0 0.00 0.25 0.01 92 1010.6
20260510095705 49 57 0.0 0.0 0.00 0.25 0.01 93 1010.4
20260510094706 49 57 0.0 0.0 0.00 0.25 0.01 93 1010.4
20260510094206 49 57 0.0 1.0 0.00 0.25 0.01 93 1010.5
20260510093705 49 57 0.0 1.0 0.00 0.25 0.01 92 1010.5
20260510093206 49 57 0.0 1.0 0.00 0.25 0.01 93 1010.4
20260510092707 49 57 0.0 1.0 0.00 0.25 0.01 93 1010.2
20260510092205 49 57 0.0 1.0 0.00 0.25 0.01 92 1010.0
20260510091703 49 5 0.0 2.0 0.00 0.25 0.01 92 1010.1
20260510091206 49 5 0.0 2.0 0.00 0.25 0.01 92 1010.3
20260510090706 49 32 0.0 2.0 0.00 0.25 0.01 92 1010.1
20260510090204 49 49 0.0 2.0 0.00 0.25 0.01 92 1010.0
20260510085705 49 59 0.0 2.0 0.00 0.25 0.01 92 1010.0
20260510084705 49 77 0.0 2.0 0.00 0.25 0.01 92 1010.2
20260510084205 49 67 0.0 1.0 0.00 0.25 0.01 92 1010.2
20260510083706 49 67 0.0 1.0 0.00 0.25 0.01 92 1010.4
20260510083205 49 81 0.0 1.0 0.00 0.25 0.01 92 1010.4
20260510082206 49 86 0.0 3.0 0.00 0.25 0.01 92 1010.4
20260510081706 49 65 0.0 3.0 0.00 0.25 0.01 92 1010.3
20260510081205 49 36 0.0 1.0 0.00 0.25 0.01 92 1010.4
20260510080705 49 67 0.0 1.0 0.00 0.25 0.01 92 1010.6
20260510080203 49 31 0.0 2.0 0.00 0.25 0.01 92 1010.6
20260510075203 49 82 0.0 2.0 0.00 0.25 0.01 92 1010.8
20260510074704 49 82 0.0 2.0 0.00 0.26 0.01 92 1010.7
20260510074204 49 90 0.0 0.0 0.00 0.26 0.01 92 1010.8
20260510073707 49 90 0.0 0.0 0.00 0.26 0.01 92 1010.9
20260510073205 49 90 0.0 0.0 0.00 0.26 0.01 92 1010.9
20260510072705 49 90 0.0 0.0 0.00 0.26 0.01 92 1011.0
20260510071705 49 90 0.0 0.0 0.00 0.27 0.01 92 1011.1
20260510071203 49 90 0.0 0.0 0.00 0.28 0.01 92 1011.0
20260510070707 49 90 0.0 0.0 0.00 0.28 0.01 92 1011.1
20260510070204 49 90 0.0 1.0 0.00 0.29 0.01 92 1011.1
20260510065705 49 90 0.0 1.0 0.00 0.29 0.01 92 1011.0
20260510065204 49 90 0.0 1.0 0.00 0.29 0.01 92 1011.1
20260510064706 48 90 0.0 1.0 0.00 0.29 0.01 92 1011.1
20260510064204 48 90 0.0 0.0 0.00 0.29 0.01 92 1010.7
20260510063703 48 90 0.0 0.0 0.01 0.29 0.01 92 1010.6
20260510063205 48 90 0.0 0.0 0.01 0.29 0.01 92 1010.7
20260510062705 48 90 0.0 0.0 0.01 0.29 0.01 92 1010.6
20260510061703 48 90 0.0 0.0 0.01 0.29 0.01 92 1010.7
20260510061205 47 90 0.0 0.0 0.01 0.29 0.01 92 1010.8
20260510060705 47 90 0.0 0.0 0.01 0.29 0.01 92 1010.7
20260510060205 47 90 0.0 0.0 0.01 0.29 0.01 92 1010.7
20260510055704 47 90 0.0 0.0 0.01 0.28 0.01 92 1010.8
20260510055205 47 90 0.0 0.0 0.01 0.28 0.01 92 1010.7
20260510054705 47 90 0.0 0.0 0.01 0.28 0.01 92 1010.8
20260510054206 47 90 0.0 0.0 0.01 0.28 0.00 92 1010.7
20260510053703 47 90 0.0 0.0 0.00 0.28 0.00 92 1010.5
20260510053205 47 90 0.0 0.0 0.00 0.28 0.00 92 1010.5
20260510052205 47 90 0.0 0.0 0.00 0.28 0.00 92 1010.1
20260510051704 47 90 0.0 0.0 0.00 0.28 0.00 92 1010.0
20260510051206 47 90 0.0 0.0 0.00 0.28 0.00 92 1010.1
20260510050707 47 90 0.0 0.0 0.00 0.28 0.00 92 1010.1
20260510050205 47 90 0.0 0.0 0.00 0.28 0.00 92 1010.1
20260510045706 47 90 0.0 0.0 0.00 0.28 0.00 92 1010.3
20260510045203 47 90 0.0 0.0 0.00 0.28 0.00 92 1010.4
20260510044705 47 90 0.0 0.0 0.00 0.28 0.00 92 1010.3
20260510044205 47 90 0.0 0.0 0.00 0.28 0.00 92 1010.3
20260510043152 47 90 0.0 0.0 0.00 0.28 0.00 92 1010.2
20260510042646 47 90 0.0 0.0 0.00 0.28 0.00 92 1010.2
20260510041635 47 90 0.0 0.0 0.00 0.28 0.00 92 1010.2
20260510041134 47 90 0.0 0.0 0.00 0.28 0.00 92 1010.2
20260510040638 47 90 0.0 0.0 0.00 0.28 0.00 91 1010.2
20260510035704 48 90 0.0 0.0 0.00 0.28 0.28 92 1010.2
20260510035203 48 90 0.0 0.0 0.00 0.28 0.28 92 1010.1
20260510034704 48 90 0.0 0.0 0.00 0.28 0.28 92 1010.2
20260510034204 48 90 0.0 0.0 0.00 0.28 0.28 92 1010.2
20260510033203 48 90 0.0 0.0 0.00 0.28 0.28 91 1010.1
20260510032205 48 90 0.0 0.0 0.00 0.28 0.28 91 1010.1
20260510031705 48 90 0.0 0.0 0.00 0.28 0.28 91 1010.2
20260510031205 48 90 0.0 0.0 0.00 0.28 0.28 91 1010.2
20260510030706 48 90 0.0 0.0 0.00 0.28 0.28 91 1010.3
20260510030205 48 90 0.0 1.0 0.00 0.28 0.28 91 1010.2
20260510025705 48 90 0.0 1.0 0.00 0.28 0.28 91 1010.2
20260510025204 48 90 0.0 1.0 0.00 0.28 0.28 91 1010.1
20260510024704 49 90 0.0 0.0 0.00 0.28 0.28 91 1010.2
20260510023205 49 90 0.0 0.0 0.00 0.28 0.28 91 1010.3
20260510022207 49 90 0.0 1.0 0.00 0.28 0.28 91 1010.1
20260510021705 49 90 0.0 1.0 0.00 0.28 0.28 91 1010.1
20260510021206 49 90 0.0 1.0 0.00 0.28 0.28 91 1010.0
20260510020705 50 90 0.0 1.0 0.00 0.28 0.28 91 1010.2
20260510020203 50 90 0.0 1.0 0.00 0.28 0.28 91 1010.1
20260510015203 50 90 0.0 1.0 0.00 0.28 0.28 91 1010.0
20260510014704 50 90 0.0 1.0 0.00 0.28 0.28 91 1010.0
20260510014204 50 90 0.0 0.0 0.00 0.28 0.28 91 1010.1
20260510013705 51 90 0.0 0.0 0.00 0.28 0.28 91 1010.2
20260510013205 51 90 0.0 0.0 0.00 0.28 0.28 91 1010.2
20260510012705 51 90 0.0 0.0 0.00 0.28 0.28 91 1010.1
20260510012206 51 90 0.0 0.0 0.00 0.28 0.28 91 1010.0
20260510011705 51 90 0.0 0.0 0.00 0.28 0.28 91 1009.9
20260510010704 51 90 0.0 0.0 0.00 0.28 0.28 91 1009.9
20260510005703 52 90 0.0 1.0 0.00 0.28 0.28 91 1009.7
20260510004705 52 90 0.0 0.0 0.00 0.28 0.28 91 1009.8
20260510004205 52 90 0.0 1.0 0.00 0.28 0.28 91 1009.6
20260510003206 53 90 0.0 1.0 0.00 0.28 0.28 91 1009.6
20260510002704 53 90 0.0 4.0 0.00 0.28 0.28 91 1009.3
20260510002205 53 91 1.0 4.0 0.00 0.28 0.28 91 1009.3
20260510001704 53 94 1.0 4.0 0.00 0.28 0.28 91 1009.3
20260510001205 53 57 1.0 3.0 0.00 0.28 0.28 91 1009.2
20260510000707 53 101 0.0 3.0 0.00 0.28 0.28 91 1009.0
20260510000205 53 37 0.0 1.0 0.00 0.28 0.28 91 1009.0
20260509235706 53 110 0.0 2.0 0.00 0.28 0.28 91 1009.2
20260509235203 53 74 0.0 3.0 0.00 0.28 0.28 91 1009.0
20260509234703 54 67 1.0 3.0 0.00 0.28 0.28 91 1009.0
20260509234205 54 158 1.0 3.0 0.00 0.28 0.28 91 1009.1
20260509233205 54 80 1.0 3.0 0.00 0.28 0.28 91 1009.0
20260509232704 54 135 1.0 3.0 0.00 0.28 0.28 91 1009.1
20260509231705 54 88 1.0 3.0 0.00 0.28 0.28 91 1008.9
20260509231205 54 84 1.0 3.0 0.00 0.28 0.28 91 1008.9
20260509230706 54 102 1.0 3.0 0.00 0.28 0.28 91 1009.0
20260509225702 54 90 0.0 2.0 0.00 0.28 0.28 91 1009.0
20260509225203 54 152 0.0 2.0 0.00 0.28 0.28 91 1009.0
20260509224703 54 191 0.0 2.0 0.00 0.28 0.28 91 1009.0
20260509224204 54 85 0.0 2.0 0.00 0.28 0.28 91 1009.0
20260509223705 54 67 0.0 2.0 0.00 0.28 0.28 91 1009.1
20260509223202 54 145 0.0 2.0 0.00 0.28 0.28 91 1009.1
20260509222703 54 148 0.0 2.0 0.00 0.28 0.28 91 1009.1
20260509222205 54 51 0.0 2.0 0.00 0.28 0.28 91 1009.1
20260509221704 54 38 0.0 2.0 0.00 0.28 0.28 91 1009.1
20260509221204 55 65 0.0 2.0 0.00 0.28 0.28 91 1009.0
20260509220705 55 66 0.0 3.0 0.00 0.28 0.28 91 1009.1
20260509220204 55 150 1.0 3.0 0.00 0.28 0.28 91 1009.2
20260509215706 55 118 1.0 2.0 0.00 0.28 0.28 91 1009.2
20260509214204 55 69 0.0 2.0 0.01 0.28 0.28 91 1009.3
20260509213705 55 101 0.0 2.0 0.01 0.28 0.28 91 1009.5
20260509212706 54 102 0.0 3.0 0.02 0.28 0.28 91 1009.3
20260509211703 54 109 0.0 2.0 0.03 0.28 0.28 91 1009.3
20260509211204 54 116 0.0 2.0 0.03 0.28 0.28 91 1009.5
20260509210706 54 81 0.0 2.0 0.04 0.28 0.28 91 1009.5
20260509210204 54 237 0.0 0.0 0.04 0.28 0.28 91 1009.4
20260509205703 54 252 0.0 0.0 0.04 0.28 0.27 91 1009.3
20260509204705 54 251 0.0 1.0 0.04 0.27 0.27 91 1009.3
20260509204205 54 248 0.0 1.0 0.04 0.27 0.27 91 1009.6
20260509203203 54 248 0.0 0.0 0.04 0.26 0.26 90 1009.8
20260509202704 54 248 0.0 0.0 0.04 0.26 0.26 90 1009.8
20260509202206 54 248 0.0 1.0 0.04 0.26 0.26 90 1009.9
20260509201705 54 248 0.0 1.0 0.03 0.25 0.25 90 1009.9
20260509201205 54 248 0.0 1.0 0.04 0.25 0.25 90 1009.9
20260509200705 54 248 0.0 1.0 0.03 0.24 0.24 90 1009.9
20260509200203 54 248 0.0 4.0 0.03 0.24 0.24 90 1009.8
20260509195705 54 243 0.0 4.0 0.04 0.24 0.24 90 1010.0
20260509195203 54 284 0.0 1.0 0.04 0.23 0.23 90 1010.2
20260509194706 54 316 0.0 1.0 0.05 0.23 0.23 90 1010.3
20260509194204 54 37 0.0 2.0 0.05 0.23 0.22 90 1010.4
20260509193705 54 37 0.0 3.0 0.05 0.22 0.22 90 1010.4
20260509193203 54 31 0.0 3.0 0.06 0.22 0.22 90 1010.5
20260509192707 54 230 0.0 3.0 0.06 0.22 0.22 90 1010.6
20260509192206 54 231 0.0 3.0 0.07 0.22 0.22 90 1010.7
20260509191703 54 315 0.0 2.0 0.07 0.22 0.22 90 1010.7
20260509191205 54 323 0.0 2.0 0.06 0.21 0.21 90 1010.7
20260509190706 55 221 1.0 3.0 0.07 0.21 0.21 90 1010.9
20260509185708 55 223 1.0 2.0 0.07 0.20 0.20 90 1011.1
20260509182655 55 261 0.0 2.0 0.05 0.16 0.16 91 1011.1
20260509182156 55 217 0.0 2.0 0.04 0.15 0.15 91 1011.1
20260509181655 55 5 0.0 2.0 0.05 0.15 0.15 91 1011.0
20260509181153 55 5 0.0 1.0 0.05 0.15 0.15 90 1010.9
20260509180654 55 5 0.0 1.0 0.04 0.14 0.14 90 1010.8
20260509175651 55 5 0.0 1.0 0.03 0.14 0.13 91 1010.8
20260509175148 55 11 0.0 1.0 0.03 0.14 0.13 91 1010.7
20260509174149 55 28 0.0 1.0 0.02 0.13 0.12 91 1010.7
20260509173644 55 28 0.0 1.0 0.03 0.13 0.12 91 1010.6
20260509173144 55 28 0.0 1.0 0.02 0.12 0.11 91 1010.5
20260509172643 55 33 0.0 1.0 0.02 0.12 0.11 91 1010.5
20260509172144 55 33 0.0 1.0 0.02 0.12 0.10 91 1010.4
20260509171644 54 81 0.0 1.0 0.01 0.11 0.10 91 1010.5
20260509171144 54 81 0.0 1.0 0.02 0.11 0.10 91 1010.5
20260509170644 54 81 0.0 1.0 0.02 0.11 0.10 91 1010.7
20260509170144 54 81 0.0 1.0 0.02 0.11 0.10 91 1010.6
20260509165140 54 111 0.0 1.0 0.03 0.11 0.10 91 1010.7
20260509164640 54 111 0.0 1.0 0.03 0.11 0.10 91 1010.8
20260509164142 54 77 0.0 1.0 0.03 0.11 0.10 91 1010.8
20260509163639 54 77 0.0 1.0 0.03 0.10 0.09 91 1010.9
20260509163139 54 77 0.0 2.0 0.03 0.10 0.09 91 1010.9
20260509162641 53 77 0.0 2.0 0.03 0.10 0.09 90 1010.9
20260509162140 53 41 0.0 2.0 0.03 0.10 0.09 90 1010.8
20260509161141 53 12 0.0 3.0 0.02 0.09 0.08 90 1010.9
20260509160640 53 36 1.0 3.0 0.02 0.09 0.08 90 1011.1
20260509160139 53 185 0.0 3.0 0.02 0.09 0.08 90 1011.2
20260509155642 53 185 0.0 2.0 0.02 0.09 0.07 90 1011.2
20260509155140 53 225 1.0 2.0 0.01 0.08 0.07 90 1011.5
20260509154639 53 260 0.0 2.0 0.01 0.08 0.07 90 1011.6
20260509154140 53 0 0.0 2.0 0.01 0.08 0.07 90 1011.7
20260509153639 53 225 0.0 1.0 0.00 0.07 0.06 90 1011.7
20260509152640 53 225 0.0 1.0 0.00 0.07 0.06 90 1011.7
20260509152139 53 225 0.0 1.0 0.01 0.07 0.06 91 1011.7
20260509151641 53 225 0.0 2.0 0.01 0.07 0.06 91 1011.7
20260509151140 53 249 0.0 2.0 0.01 0.07 0.06 91 1011.6
20260509150642 53 254 0.0 1.0 0.01 0.07 0.06 91 1011.6
20260509150136 53 244 0.0 1.0 0.01 0.07 0.06 91 1011.4
20260509145636 53 240 0.0 1.0 0.01 0.07 0.06 91 1011.4
20260509144632 53 240 1.0 3.0 0.01 0.07 0.06 91 1011.2
20260509144131 52 194 0.0 3.0 0.01 0.07 0.06 91 1011.2
20260509143633 52 148 0.0 1.0 0.01 0.07 0.06 91 1011.4
20260509143131 52 148 0.0 4.0 0.01 0.07 0.06 91 1011.4